STARLINK-3555, 51863

Orbit data source: Space-Track

STARLINK-3555, 51863 is a payload satellite owned by SpaceX/Seattle (US) in LEO that was launched on Thu, 03 Mar 2022 UTC via an FALCON 9 launch vehicle from the Air Force Eastern Test Range (AFETR). Payload-class satellites include a variety of spacecraft equipped with specific instruments for various scientific and technological missions. These include communications satellites like Starlink; space stations such as the ISS; scientific satellites like the Hubble; Earth observation satellites from companies like Planet Labs, Umbra, and HawkEye 360; GPS; miniature CubeSats for education and research; and military/defense satellites.

Loading next visibility...
Identifier
51863, 2022-022M
Orbit
LEO
Country
Flag of USUS
Related business
Manufacturer
SpaceX/Seattle
Mission
Operational Commercial Communications
Bus & Motor
STARLINK, Unknown motor
Mass
297 kg wet, ~275 kg dry
Launch date (UTC)
2022-03-03 (4 years ago)
Launch vehicle
FALCON 9
Launch site
Air Force Eastern Test Range (AFETR)
Object type
Payload
Rocket body
Debris
Shape & HBR
Box + 1 Pan, 10.1 m
Radar Cross Section
13.562 m², Large (>1 m²)

Expand to show TLE details & history
Last TLE update: 2 days ago

TLE from 2 days ago
0 STARLINK-3555
1 51863U 22022M   26171.44475106  .00006483  00000-0  42496-3 0  9998
2 51863  53.1577 267.7186 0001036  82.0059 278.1049 15.08846456238623
Epoch: 2026-06-20T10:40Z
TLE epoch observation values (Epoch: 2026-06-20T10:40:26.491Z)
Latitude
-0.0001°
Longitude
-161.05114°
Altitude
540.514 km
Speed
7.593 km/s
True Right ascension
17h 50m 52s
True Declination
0° 00' 00"
Sunlit
Object was in full shadow at epoch
Visualization orbit readout
Latitude
Unknown
Longitude
Unknown
Altitude
Unknown
Speed
Unknown
Apparent Right ascension
Unknown
Apparent Declination
Unknown
Sunlit
N/A
Visualization observer readout
Local Sidereal Time
21:31:37
Azimuth
Unknown
Elevation
Unknown
Doppler factor
Unknown
Orbital elements
Apogee altitude
540.695 km
Perigee altitude
539.261 km
Semi-major axis
6,918.115 km
Eccentricity
0.0001
Inclination
53.1577°
RAAN
267.7186°
Arg. of periapsis
82.0059°
True anomaly
278.09315°
Mean anomaly
278.1049°
Eccentric anomaly
278.09902°
Mean motion
3.77191 °/min
Orbital period
95.44 mins
BSTAR
0.00042496
Loading maneuver chart data...
Computing Atmospheric mass density...
Loading historical data...
Loading historical data...
Loading historical data...
Loading historical data...
Loading historical data...
Loading historical data...
Loading historical data...

Documentation

Showing up to 5 results
|